Regional Weather Roundup
Issued by NWS

Home | Current Version | Previous Version | Text Only | Print | Product List | Glossary Off
Versions: 1 2 3 4 5 6 7 8 9 10 11 12 13 14 15 16 17 18 19 20 21 22 23 24 25 26 27 28 29 30 31 32 33 34 35 36 37 38 39 40 41 42 43 44 45 46 47 48 49 50

000
ASUS43 KDTX 030310
RWRMI
MICHIGAN HOURLY REGIONAL WEATHER ROUNDUP
NATIONAL WEATHER SERVICE DETROIT/PONTIAC MI
1100 PM EDT SUN AUG 02 2015

NOTE: "FAIR" INDICATES FEW OR NO CLOUDS BELOW 12,000 FEET WITH NO
SIGNIFICANT WEATHER AND/OR OBSTRUCTION TO VISIBILITY.

MIZ047>049-052>055-059>063-066>070-074>076-081>083-030400-
SOUTHEAST LOWER MICHIGAN

CITY           SKY/WX    TMP DP  RH WIND       PRES   REMARKS
ADRIAN         PTCLDY    79  65  62 SW15      29.73R
ALMA           LGT RAIN  62  61  96 S6G17     29.64F
ANN ARBOR      CLOUDY    73  59  61 N28G36    29.76R
BAD AXE        RAIN      62  60  95 S21G26    29.66F
DETROIT CITY   CLOUDY    70  58  65 VRB7G26   29.79R
DETROIT        MOCLDY    82  64  54 SW13G26   29.71R
FLINT          TSTM      63  60  90 S7        29.76F FOG
GROSSE ILE     PTCLDY    82  64  54 SW14G22   29.68S
HILLSDALE      MOCLDY    81  66  61 SW12G22   29.74R
HOWELL         HVY RAIN  63  60  93 CALM      29.77R VSB 1

CITY           SKY/WX    TMP DP  RH WIND       PRES   REMARKS
JACKSON        MOCLDY    71  58  63 N14G33    29.77R
LAMBERTVILLE   PTCLDY    81  64  55 SW12G23   29.73S
LANSING        RAIN      63  62  97 S13       29.75F
LAPEER         NOT AVBL
MASON          HVY RAIN  62  59  90 W6        29.77R
MONROE         PTCLDY    81  65  58 SW14G22   29.70R
MT. CLEMENS    TSTM      64  63  94 VRB5G17   29.78R FOG
PONTIAC        TSTM      60  59  96 NW7       29.80R FOG
PORT HURON     HVY RAIN  63  61  94 CALM      29.79R
TRI CITIES     LGT RAIN  63  59  87 S17G24    29.65F
YPSILANTI      CLOUDY    76  59  55 N28G43    29.76R
$$
MIZ043>046-050>051-056>058-064>065-071>073-077>080-030400-
SOUTHWEST LOWER MICHIGAN

CITY           SKY/WX    TMP DP  RH WIND       PRES   REMARKS
BATTLE CREEK   TSTM      65  61  87 VRB6      29.77R VSB 1
BENTON HARBOR  LGT RAIN  68  62  81 N13G24    29.74R
BIG RAPIDS     CLOUDY    64  62  93 SE3       29.64R
COLDWATER      MOCLDY    80  65  60 SW12G23   29.72R
HOLLAND        CLOUDY    67  64  90 W15G26    29.63F THUNDER
GRAND RAPIDS   TSTM      66  63  90 S12       29.62S
KALAMAZOO      TSTM      65  61  87 W8G21     29.77R FOG
MARSHALL       RAIN      70  59  66 NW14G25   29.79R
MUSKEGON       CLOUDY    69  65  86 NW6       29.63R
$$
MIZ016>042-030400-
NORTHERN LOWER MICHIGAN

CITY           SKY/WX    TMP DP  RH WIND       PRES   REMARKS
ALPENA         CLOUDY    63  61  93 W3        29.59R
BEAVER ISLAND  MOCLDY    64  60  86 NW6       29.63S
BELLAIRE       CLOUDY    60  58  95 CALM      29.63R
CADILLAC       CLOUDY    60  59  97 W5        29.63R
CHARLEVOIX     CLOUDY    65  64  98 W9        29.64F
FRANKFORT      CLOUDY    59  59  99 CALM      29.64R
GAYLORD        CLOUDY    60  60 100 W3        29.62S
GRAYLING       CLOUDY    58  58  97 CALM      29.64R
HARBOR SPRINGS CLOUDY    63  62  96 W5        29.60F
HOUGHTON LAKE  CLOUDY    60  59  96 SE3       29.63R
MANISTEE       CLOUDY    61  55  82 W3        29.65R
OSCODA         CLOUDY    63  62  97 W10       29.60R
PELLSTON       CLOUDY    63  62  97 W7        29.59F
TRAVERSE CITY  CLOUDY    61  59  93 CALM      29.61F
$$
MIZ007>008-015-030400-
EASTERN UPPER MICHIGAN

CITY           SKY/WX    TMP DP  RH WIND       PRES   REMARKS
KINROSS        CLOUDY    61  59  94 NW5       29.60S
MACKINAC ISLAN CLOUDY    64  64  99 NW7       29.59F
NEWBERRY       PTCLDY    56  56  97 W5        29.62S
S. S. MARIE    CLOUDY    61  57  87 NW7       29.59R
$$
MIZ004>006-011>014-085-030400-
CENTRAL UPPER MICHIGAN

CITY           SKY/WX    TMP DP  RH WIND       PRES   REMARKS
MANISTIQUE     CLEAR     54  54 100 CALM      29.63R FOG
ESCANABA       MOCLDY    63  61  94 W6        29.64S
MENOMINEE      MOCLDY    63  59  88 CALM      29.65S
SAWYER-GWINN   PTCLDY    61  55  81 W3        29.66S
$$
MIZ001>003-009>011-084-030400-
WESTERN UPPER MICHIGAN

CITY           SKY/WX    TMP DP  RH WIND       PRES   REMARKS
IRON MOUNTAIN  PTCLDY    61  57  87 CALM      29.67R
HOUGHTON       CLOUDY    61  52  72 NW8       29.66R
COPPER HARBOR    N/A     63  52  67 N12G21    29.63R
IRONWOOD       CLEAR     63  52  67 W7        29.70R
$$

ABBREVIATIONS USED IN REMARKS
   TC - TEMPERATURE IN CELSIUS
  WCI - WIND CHILL INDEX
   HX - HEAT INDEX
  VSB - VISIBILITY



USA.gov is the U.S. government's official web portal to all federal, state and local government web resources and services.